| time (UTC) | temp F | wind direction | speed MPH | gust MPH | rain 1hr in | rain 24hr in | rain mn in | humidity % | barometer mb |
| 20260906023800 | 74 | 87 | 7.0 | 9.0 | 0.00 | 0.00 | 0.00 | 82 | 1014.0 |
| 20260906023254 | 74 | 69 | 9.0 | 10.0 | 0.00 | 0.00 | 0.00 | 82 | 1014.1 |
| 20260906022750 | 75 | 76 | 7.0 | 9.0 | 0.00 | 0.00 | 0.00 | 82 | 1014.0 |
| 20260906022245 | 75 | 63 | 9.0 | 13.0 | 0.00 | 0.00 | 0.00 | 81 | 1013.8 |
| 20260906021742 | 75 | 72 | 6.0 | 9.0 | 0.00 | 0.00 | 0.00 | 80 | 1013.6 |
| 20260906021240 | 76 | 72 | 4.0 | 5.0 | 0.00 | 0.00 | 0.00 | 79 | 1013.9 |
| 20260906020735 | 76 | 91 | 3.0 | 5.0 | 0.00 | 0.00 | 0.00 | 78 | 1013.6 |
| 20260906020235 | 76 | 93 | 5.0 | 6.0 | 0.00 | 0.00 | 0.00 | 77 | 1013.6 |
| 20260906015730 | 76 | 96 | 5.0 | 6.0 | 0.00 | 0.00 | 0.00 | 76 | 1013.3 |
| 20260906015228 | 77 | 108 | 6.0 | 7.0 | 0.00 | 0.00 | 0.00 | 75 | 1013.7 |
| 20260906014723 | 77 | 81 | 6.0 | 6.0 | 0.00 | 0.00 | 0.00 | 74 | 1013.3 |
| 20260906014219 | 77 | 81 | 6.0 | 7.0 | 0.00 | 0.00 | 0.00 | 74 | 1013.4 |
| 20260906013715 | 77 | 102 | 8.0 | 9.0 | 0.00 | 0.00 | 0.00 | 73 | 1013.2 |
| 20260906013215 | 77 | 95 | 8.0 | 9.0 | 0.00 | 0.00 | 0.00 | 72 | 1013.2 |
| 20260906012710 | 77 | 106 | 7.0 | 9.0 | 0.00 | 0.00 | 0.00 | 72 | 1013.2 |
| 20260906012204 | 77 | 103 | 5.0 | 6.0 | 0.00 | 0.00 | 0.00 | 71 | 1013.0 |
| 20260906011659 | 78 | 99 | 7.0 | 8.0 | 0.00 | 0.00 | 0.00 | 71 | 1013.2 |
| 20260906011154 | 78 | 72 | 7.0 | 9.0 | 0.00 | 0.00 | 0.00 | 70 | 1013.1 |
| 20260906010650 | 79 | 86 | 6.0 | 7.0 | 0.00 | 0.00 | 0.00 | 70 | 1013.1 |
| 20260906010146 | 79 | 82 | 4.0 | 5.0 | 0.00 | 0.00 | 0.00 | 69 | 1013.2 |
| 20260906005645 | 80 | 85 | 5.0 | 6.0 | 0.00 | 0.00 | 0.00 | 68 | 1012.9 |
| 20260906005144 | 81 | 105 | 8.0 | 9.0 | 0.00 | 0.00 | 0.00 | 68 | 1013.2 |
| 20260906004644 | 82 | 94 | 6.0 | 7.0 | 0.00 | 0.00 | 0.00 | 66 | 1013.1 |
| 20260906004139 | 82 | 113 | 7.0 | 8.0 | 0.00 | 0.00 | 0.00 | 66 | 1013.2 |
| 20260906003634 | 82 | 80 | 5.0 | 6.0 | 0.00 | 0.00 | 0.00 | 66 | 1013.2 |
| 20260906003130 | 83 | 100 | 4.0 | 5.0 | 0.00 | 0.00 | 0.00 | 67 | 1013.2 |
| 20260906002624 | 83 | 102 | 5.0 | 9.0 | 0.00 | 0.00 | 0.00 | 68 | 1013.3 |
| 20260906002119 | 83 | 153 | 9.0 | 14.0 | 0.00 | 0.00 | 0.00 | 68 | 1013.5 |
| 20260906001614 | 83 | 112 | 8.0 | 10.0 | 0.00 | 0.00 | 0.00 | 68 | 1013.4 |
| 20260906001109 | 83 | 108 | 9.0 | 10.0 | 0.00 | 0.00 | 0.00 | 68 | 1013.7 |
| 20260906000605 | 83 | 88 | 11.0 | 14.0 | 0.00 | 0.00 | 0.00 | 68 | 1013.7 |
| 20260906000100 | 83 | 136 | 10.0 | 13.0 | 0.00 | 0.00 | 0.00 | 69 | 1013.6 |
| 20260905235559 | 83 | 75 | 8.0 | 11.0 | 0.00 | 0.00 | 0.00 | 70 | 1013.8 |
| 20260905235054 | 83 | 109 | 12.0 | 14.0 | 0.00 | 0.00 | 0.00 | 70 | 1013.7 |
| 20260905234550 | 83 | 135 | 7.0 | 9.0 | 0.00 | 0.00 | 0.00 | 69 | 1013.7 |
| 20260905234044 | 83 | 109 | 11.0 | 16.0 | 0.00 | 0.00 | 0.00 | 69 | 1013.7 |
| 20260905233539 | 83 | 128 | 9.0 | 11.0 | 0.00 | 0.00 | 0.00 | 69 | 1013.6 |
| 20260905233039 | 83 | 129 | 13.0 | 14.0 | 0.00 | 0.00 | 0.00 | 69 | 1013.7 |
| 20260905232534 | 85 | 65 | 14.0 | 18.0 | 0.00 | 0.00 | 0.00 | 67 | 1013.4 |
| 20260905232030 | 86 | 109 | 7.0 | 9.0 | 0.00 | 0.00 | 0.00 | 65 | 1013.3 |
| 20260905231525 | 89 | 66 | 12.0 | 17.0 | 0.00 | 0.00 | 0.00 | 58 | 1013.4 |
| 20260905231021 | 90 | 68 | 10.0 | 11.0 | 0.00 | 0.00 | 0.00 | 52 | 1013.0 |
| 20260905230520 | 90 | 108 | 9.0 | 10.0 | 0.00 | 0.00 | 0.00 | 52 | 1013.1 |
| 20260905230019 | 90 | 112 | 12.0 | 15.0 | 0.00 | 0.00 | 0.00 | 51 | 1012.9 |
| 20260905225514 | 90 | 110 | 6.0 | 7.0 | 0.00 | 0.00 | 0.00 | 52 | 1012.9 |
| 20260905225009 | 91 | 136 | 10.0 | 15.0 | 0.00 | 0.00 | 0.00 | 51 | 1012.9 |
| 20260905224504 | 91 | 120 | 7.0 | 8.0 | 0.00 | 0.00 | 0.00 | 51 | 1013.0 |
| 20260905224003 | 91 | 85 | 7.0 | 8.0 | 0.00 | 0.00 | 0.00 | 51 | 1012.3 |
| 20260905223501 | 91 | 95 | 10.0 | 13.0 | 0.00 | 0.00 | 0.00 | 51 | 1012.4 |
| 20260905222956 | 91 | 121 | 8.0 | 11.0 | 0.00 | 0.00 | 0.00 | 50 | 1012.1 |
| 20260905222456 | 91 | 168 | 10.0 | 14.0 | 0.00 | 0.00 | 0.00 | 50 | 1011.9 |
| 20260905221951 | 91 | 100 | 9.0 | 10.0 | 0.00 | 0.00 | 0.00 | 50 | 1011.9 |
| 20260905221448 | 92 | 119 | 11.0 | 13.0 | 0.00 | 0.00 | 0.00 | 49 | 1011.9 |
| 20260905220944 | 92 | 92 | 6.0 | 7.0 | 0.00 | 0.00 | 0.00 | 49 | 1011.9 |
| 20260905220440 | 92 | 121 | 6.0 | 7.0 | 0.00 | 0.00 | 0.00 | 48 | 1011.8 |
| 20260905215938 | 92 | 155 | 7.0 | 9.0 | 0.00 | 0.00 | 0.00 | 47 | 1012.0 |
| 20260905215434 | 93 | 74 | 8.0 | 10.0 | 0.00 | 0.00 | 0.00 | 47 | 1012.1 |
| 20260905214930 | 92 | 134 | 3.0 | 3.0 | 0.00 | 0.00 | 0.00 | 46 | 1012.5 |
| 20260905214425 | 92 | 81 | 10.0 | 11.0 | 0.00 | 0.00 | 0.00 | 48 | 1012.7 |
| 20260905213920 | 93 | 164 | 6.0 | 9.0 | 0.00 | 0.00 | 0.00 | 44 | 1012.7 |
| 20260905213416 | 93 | 154 | 7.0 | 8.0 | 0.00 | 0.00 | 0.00 | 44 | 1012.6 |
| 20260905212912 | 93 | 113 | 5.0 | 7.0 | 0.00 | 0.00 | 0.00 | 45 | 1012.5 |
| 20260905212406 | 93 | 105 | 10.0 | 11.0 | 0.00 | 0.00 | 0.00 | 44 | 1012.6 |
| 20260905211900 | 93 | 124 | 8.0 | 9.0 | 0.00 | 0.00 | 0.00 | 44 | 1012.6 |
| 20260905211356 | 93 | 120 | 5.0 | 6.0 | 0.00 | 0.00 | 0.00 | 45 | 1012.3 |
| 20260905210852 | 92 | 89 | 7.0 | 10.0 | 0.00 | 0.00 | 0.00 | 45 | 1012.6 |
| 20260905210351 | 92 | 92 | 5.0 | 6.0 | 0.00 | 0.00 | 0.00 | 44 | 1012.4 |
| 20260905205850 | 93 | 118 | 9.0 | 11.0 | 0.00 | 0.00 | 0.00 | 44 | 1012.5 |
| 20260905205345 | 93 | 102 | 10.0 | 11.0 | 0.00 | 0.00 | 0.00 | 45 | 1012.5 |
| 20260905204844 | 91 | 87 | 6.0 | 8.0 | 0.00 | 0.00 | 0.00 | 46 | 1012.4 |
| 20260905204341 | 92 | 122 | 7.0 | 9.0 | 0.00 | 0.00 | 0.00 | 46 | 1012.7 |
| 20260905203838 | 91 | 110 | 9.0 | 11.0 | 0.00 | 0.00 | 0.00 | 45 | 1012.5 |
| 20260905203335 | 91 | 132 | 4.0 | 5.0 | 0.00 | 0.00 | 0.00 | 46 | 1012.6 |
| 20260905202825 | 91 | 171 | 9.0 | 11.0 | 0.00 | 0.00 | 0.00 | 44 | 1012.4 |
| 20260905202319 | 92 | 141 | 11.0 | 14.0 | 0.00 | 0.00 | 0.00 | 45 | 1012.7 |
| 20260905201815 | 92 | 149 | 10.0 | 11.0 | 0.00 | 0.00 | 0.00 | 44 | 1012.7 |
| 20260905201311 | 92 | 107 | 6.0 | 8.0 | 0.00 | 0.00 | 0.00 | 45 | 1012.7 |
| 20260905200805 | 91 | 143 | 6.0 | 7.0 | 0.00 | 0.00 | 0.00 | 45 | 1013.0 |
| 20260905200301 | 91 | 155 | 9.0 | 9.0 | 0.00 | 0.00 | 0.00 | 46 | 1012.9 |
| 20260905195759 | 91 | 161 | 9.0 | 9.0 | 0.00 | 0.00 | 0.00 | 46 | 1012.9 |
| 20260905195254 | 90 | 162 | 5.0 | 6.0 | 0.00 | 0.00 | 0.00 | 45 | 1012.9 |
| 20260905194749 | 90 | 102 | 7.0 | 8.0 | 0.00 | 0.00 | 0.00 | 48 | 1012.7 |
| 20260905194248 | 91 | 74 | 6.0 | 7.0 | 0.00 | 0.00 | 0.00 | 47 | 1013.2 |
| 20260905193743 | 92 | 164 | 6.0 | 7.0 | 0.00 | 0.00 | 0.00 | 48 | 1013.1 |
| 20260905193238 | 91 | 145 | 3.0 | 5.0 | 0.00 | 0.00 | 0.00 | 47 | 1013.2 |
| 20260905192733 | 91 | 94 | 7.0 | 9.0 | 0.00 | 0.00 | 0.00 | 47 | 1013.2 |
| 20260905192230 | 90 | 168 | 9.0 | 11.0 | 0.00 | 0.00 | 0.00 | 47 | 1013.1 |
| 20260905191729 | 91 | 137 | 7.0 | 8.0 | 0.00 | 0.00 | 0.00 | 47 | 1013.2 |
| 20260905191227 | 91 | 154 | 5.0 | 6.0 | 0.00 | 0.00 | 0.00 | 48 | 1013.4 |
| 20260905190726 | 90 | 158 | 5.0 | 6.0 | 0.00 | 0.00 | 0.00 | 47 | 1013.4 |
| 20260905190225 | 90 | 69 | 4.0 | 5.0 | 0.00 | 0.00 | 0.00 | 49 | 1013.5 |
| 20260905185724 | 90 | 128 | 10.0 | 11.0 | 0.00 | 0.00 | 0.00 | 46 | 1013.4 |
| 20260905185218 | 90 | 157 | 7.0 | 8.0 | 0.00 | 0.00 | 0.00 | 47 | 1013.5 |
| 20260905184714 | 89 | 149 | 7.0 | 8.0 | 0.00 | 0.00 | 0.00 | 48 | 1013.8 |
| 20260905184212 | 90 | 164 | 8.0 | 9.0 | 0.00 | 0.00 | 0.00 | 47 | 1013.7 |
| 20260905183712 | 89 | 74 | 5.0 | 7.0 | 0.00 | 0.00 | 0.00 | 50 | 1013.8 |
| 20260905183208 | 88 | 95 | 6.0 | 8.0 | 0.00 | 0.00 | 0.00 | 49 | 1014.1 |
| 20260905182706 | 88 | 121 | 6.0 | 8.0 | 0.00 | 0.00 | 0.00 | 51 | 1013.9 |
| 20260905182201 | 87 | 157 | 5.0 | 6.0 | 0.00 | 0.00 | 0.00 | 51 | 1014.2 |
| 20260905181656 | 87 | 72 | 6.0 | 8.0 | 0.00 | 0.00 | 0.00 | 52 | 1014.1 |
| 20260905181155 | 87 | 106 | 9.0 | 11.0 | 0.00 | 0.00 | 0.00 | 51 | 1014.1 |
| 20260905180650 | 88 | 131 | 6.0 | 8.0 | 0.00 | 0.00 | 0.00 | 51 | 1014.0 |
| 20260905180145 | 87 | 101 | 9.0 | 10.0 | 0.00 | 0.00 | 0.00 | 49 | 1014.2 |
| 20260905175644 | 87 | 162 | 6.0 | 8.0 | 0.00 | 0.00 | 0.00 | 51 | 1014.3 |
| 20260905175140 | 87 | 120 | 5.0 | 8.0 | 0.00 | 0.00 | 0.00 | 53 | 1014.1 |
| 20260905174636 | 87 | 138 | 6.0 | 7.0 | 0.00 | 0.00 | 0.00 | 52 | 1014.2 |
| 20260905174131 | 86 | 119 | 6.0 | 7.0 | 0.00 | 0.00 | 0.00 | 53 | 1014.4 |
| 20260905173626 | 86 | 155 | 9.0 | 10.0 | 0.00 | 0.00 | 0.00 | 53 | 1014.6 |
| 20260905173122 | 86 | 142 | 7.0 | 9.0 | 0.00 | 0.00 | 0.00 | 53 | 1014.8 |
| 20260905172615 | 86 | 164 | 4.0 | 5.0 | 0.00 | 0.00 | 0.00 | 55 | 1014.4 |
| 20260905172110 | 85 | 129 | 7.0 | 8.0 | 0.00 | 0.00 | 0.00 | 54 | 1014.3 |
| 20260905171607 | 85 | 150 | 5.0 | 7.0 | 0.00 | 0.00 | 0.00 | 56 | 1014.1 |
| 20260905171102 | 84 | 85 | 6.0 | 8.0 | 0.00 | 0.00 | 0.00 | 55 | 1014.4 |
| 20260905170559 | 85 | 83 | 5.0 | 6.0 | 0.00 | 0.00 | 0.00 | 55 | 1014.1 |
| 20260905170054 | 84 | 155 | 4.0 | 5.0 | 0.00 | 0.00 | 0.00 | 56 | 1014.4 |
| 20260905165548 | 84 | 149 | 7.0 | 9.0 | 0.00 | 0.00 | 0.00 | 56 | 1014.3 |
| 20260905165038 | 84 | 141 | 6.0 | 8.0 | 0.00 | 0.00 | 0.00 | 57 | 1014.2 |
| 20260905164538 | 83 | 166 | 8.0 | 9.0 | 0.00 | 0.00 | 0.00 | 57 | 1014.2 |
| 20260905164032 | 84 | 156 | 7.0 | 9.0 | 0.00 | 0.00 | 0.00 | 56 | 1014.3 |
| 20260905163529 | 84 | 121 | 10.0 | 13.0 | 0.00 | 0.00 | 0.00 | 56 | 1014.4 |
| 20260905163025 | 83 | 158 | 7.0 | 7.0 | 0.00 | 0.00 | 0.00 | 56 | 1014.2 |
| 20260905162520 | 84 | 155 | 9.0 | 11.0 | 0.00 | 0.00 | 0.00 | 57 | 1014.3 |
| 20260905162014 | 83 | 119 | 7.0 | 9.0 | 0.00 | 0.00 | 0.00 | 57 | 1014.3 |
| 20260905161509 | 83 | 146 | 10.0 | 11.0 | 0.00 | 0.00 | 0.00 | 56 | 1014.3 |
| 20260905161006 | 82 | 134 | 11.0 | 14.0 | 0.00 | 0.00 | 0.00 | 58 | 1014.3 |
| 20260905160500 | 83 | 115 | 5.0 | 6.0 | 0.00 | 0.00 | 0.00 | 60 | 1014.4 |
| 20260905155959 | 83 | 122 | 7.0 | 8.0 | 0.00 | 0.00 | 0.00 | 57 | 1014.9 |
| 20260905155454 | 83 | 152 | 4.0 | 5.0 | 0.00 | 0.00 | 0.00 | 58 | 1014.9 |
| 20260905154953 | 83 | 116 | 2.0 | 2.0 | 0.00 | 0.00 | 0.00 | 58 | 1014.5 |
| 20260905154448 | 82 | 89 | 2.0 | 2.0 | 0.00 | 0.00 | 0.00 | 61 | 1014.5 |
| 20260905153944 | 81 | 89 | 5.0 | 7.0 | 0.00 | 0.00 | 0.00 | 62 | 1014.3 |
| 20260905153440 | 81 | 144 | 5.0 | 6.0 | 0.00 | 0.00 | 0.00 | 63 | 1014.1 |
| 20260905152939 | 81 | 153 | 5.0 | 7.0 | 0.00 | 0.00 | 0.00 | 62 | 1014.4 |
| 20260905152434 | 80 | 73 | 2.0 | 2.0 | 0.00 | 0.00 | 0.00 | 64 | 1014.5 |
| 20260905151928 | 80 | 108 | 4.0 | 5.0 | 0.00 | 0.00 | 0.00 | 65 | 1014.2 |
| 20260905151419 | 80 | 111 | 3.0 | 5.0 | 0.00 | 0.00 | 0.00 | 65 | 1014.2 |
| 20260905150918 | 79 | 91 | 5.0 | 5.0 | 0.00 | 0.00 | 0.00 | 66 | 1014.1 |
| 20260905150413 | 79 | 85 | 3.0 | 3.0 | 0.00 | 0.00 | 0.00 | 66 | 1014.3 |
| 20260905145909 | 79 | 54 | 3.0 | 3.0 | 0.00 | 0.00 | 0.00 | 66 | 1014.5 |
| 20260905145409 | 78 | 81 | 2.0 | 2.0 | 0.00 | 0.00 | 0.00 | 68 | 1014.1 |
| 20260905144904 | 79 | 61 | 2.0 | 2.0 | 0.00 | 0.00 | 0.00 | 66 | 1014.2 |
| 20260905144359 | 78 | 84 | 1.0 | 2.0 | 0.00 | 0.00 | 0.00 | 68 | 1014.4 |
| 20260905143857 | 77 | 57 | 1.0 | 1.0 | 0.00 | 0.00 | 0.00 | 70 | 1014.3 |
| 20260905143351 | 77 | 57 | 3.0 | 3.0 | 0.00 | 0.00 | 0.00 | 69 | 1013.9 |
| 20260905142846 | 76 | 54 | 5.0 | 6.0 | 0.00 | 0.00 | 0.00 | 71 | 1013.7 |
| 20260905142344 | 76 | 75 | 3.0 | 3.0 | 0.00 | 0.00 | 0.00 | 73 | 1013.9 |
| 20260905141841 | 76 | 49 | 2.0 | 2.0 | 0.00 | 0.00 | 0.00 | 72 | 1013.9 |
| 20260905141336 | 77 | 60 | 1.0 | 1.0 | 0.00 | 0.00 | 0.00 | 71 | 1014.0 |
| 20260905140832 | 76 | 115 | 6.0 | 7.0 | 0.00 | 0.00 | 0.00 | 72 | 1013.3 |
| 20260905140331 | 75 | 134 | 9.0 | 10.0 | 0.00 | 0.00 | 0.00 | 73 | 1013.0 |
| 20260905135830 | 74 | 128 | 7.0 | 8.0 | 0.00 | 0.00 | 0.00 | 74 | 1013.2 |
| 20260905135326 | 73 | 189 | 7.0 | 8.0 | 0.00 | 0.00 | 0.00 | 77 | 1013.0 |
| 20260905134821 | 72 | 65 | 6.0 | 8.0 | 0.00 | 0.00 | 0.00 | 80 | 1012.7 |
| 20260905134314 | 73 | 96 | 5.0 | 7.0 | 0.00 | 0.00 | 0.00 | 79 | 1013.0 |
| 20260905133809 | 72 | 127 | 5.0 | 6.0 | 0.00 | 0.00 | 0.00 | 80 | 1012.9 |
| 20260905133305 | 72 | 99 | 5.0 | 6.0 | 0.00 | 0.00 | 0.00 | 80 | 1012.7 |
| 20260905132803 | 72 | 122 | 6.0 | 8.0 | 0.00 | 0.00 | 0.00 | 81 | 1012.7 |
| 20260905132259 | 71 | 115 | 5.0 | 7.0 | 0.00 | 0.00 | 0.00 | 81 | 1012.6 |
| 20260905131759 | 71 | 105 | 5.0 | 6.0 | 0.00 | 0.00 | 0.00 | 82 | 1012.4 |
| 20260905131254 | 71 | 103 | 6.0 | 7.0 | 0.00 | 0.00 | 0.00 | 82 | 1012.7 |
| 20260905130750 | 71 | 77 | 5.0 | 6.0 | 0.00 | 0.00 | 0.00 | 83 | 1012.5 |
| 20260905130249 | 71 | 125 | 4.0 | 5.0 | 0.00 | 0.00 | 0.00 | 83 | 1012.5 |
| 20260905125744 | 71 | 103 | 5.0 | 6.0 | 0.00 | 0.00 | 0.00 | 84 | 1012.7 |
| 20260905125239 | 70 | 111 | 5.0 | 7.0 | 0.00 | 0.00 | 0.00 | 84 | 1012.4 |
| 20260905124735 | 70 | 90 | 7.0 | 8.0 | 0.00 | 0.00 | 0.00 | 85 | 1012.5 |
| 20260905124231 | 70 | 91 | 6.0 | 7.0 | 0.00 | 0.00 | 0.00 | 85 | 1012.7 |
| 20260905123726 | 70 | 127 | 6.0 | 7.0 | 0.00 | 0.00 | 0.00 | 85 | 1012.6 |
| 20260905123223 | 70 | 138 | 5.0 | 7.0 | 0.00 | 0.00 | 0.00 | 86 | 1012.4 |
| 20260905122722 | 70 | 106 | 7.0 | 8.0 | 0.00 | 0.00 | 0.00 | 87 | 1011.9 |
| 20260905122217 | 69 | 157 | 7.0 | 9.0 | 0.00 | 0.00 | 0.00 | 88 | 1012.1 |
| 20260905121712 | 69 | 130 | 5.0 | 6.0 | 0.00 | 0.00 | 0.00 | 88 | 1012.1 |
| 20260905121209 | 69 | 142 | 8.0 | 9.0 | 0.00 | 0.00 | 0.00 | 88 | 1012.0 |
| 20260905120707 | 69 | 76 | 8.0 | 10.0 | 0.00 | 0.00 | 0.00 | 89 | 1012.0 |
| 20260905120201 | 69 | 102 | 8.0 | 9.0 | 0.00 | 0.00 | 0.00 | 89 | 1012.0 |
| 20260905115656 | 69 | 120 | 6.0 | 8.0 | 0.00 | 0.00 | 0.00 | 89 | 1012.0 |
| 20260905115151 | 69 | 109 | 7.0 | 8.0 | 0.00 | 0.00 | 0.00 | 90 | 1012.1 |
| 20260905114651 | 69 | 131 | 7.0 | 8.0 | 0.00 | 0.00 | 0.00 | 90 | 1012.1 |
| 20260905114149 | 68 | 83 | 6.0 | 8.0 | 0.00 | 0.00 | 0.00 | 90 | 1012.0 |
| 20260905113644 | 68 | 106 | 6.0 | 7.0 | 0.00 | 0.00 | 0.00 | 91 | 1012.2 |
| 20260905113139 | 68 | 128 | 4.0 | 5.0 | 0.00 | 0.00 | 0.00 | 91 | 1012.2 |
| 20260905112633 | 68 | 90 | 4.0 | 5.0 | 0.00 | 0.00 | 0.00 | 91 | 1012.1 |
| 20260905112130 | 68 | 106 | 3.0 | 3.0 | 0.00 | 0.00 | 0.00 | 90 | 1012.4 |
| 20260905111629 | 68 | 119 | 4.0 | 5.0 | 0.00 | 0.00 | 0.00 | 90 | 1012.3 |
| 20260905111128 | 68 | 95 | 5.0 | 5.0 | 0.00 | 0.00 | 0.00 | 90 | 1012.2 |
| 20260905110628 | 68 | 143 | 7.0 | 8.0 | 0.00 | 0.00 | 0.00 | 90 | 1012.0 |
| 20260905110123 | 68 | 131 | 5.0 | 6.0 | 0.00 | 0.00 | 0.00 | 90 | 1011.9 |
| 20260905105618 | 68 | 118 | 7.0 | 8.0 | 0.00 | 0.00 | 0.00 | 90 | 1011.9 |
| 20260905105117 | 69 | 114 | 6.0 | 7.0 | 0.00 | 0.00 | 0.00 | 90 | 1012.1 |
| 20260905104612 | 69 | 109 | 6.0 | 8.0 | 0.00 | 0.00 | 0.00 | 90 | 1011.9 |
| 20260905104107 | 69 | 126 | 7.0 | 9.0 | 0.00 | 0.00 | 0.00 | 90 | 1011.6 |
| 20260905103602 | 69 | 148 | 6.0 | 7.0 | 0.00 | 0.00 | 0.00 | 90 | 1011.8 |
| 20260905103059 | 69 | 112 | 5.0 | 7.0 | 0.00 | 0.00 | 0.00 | 90 | 1011.5 |
| 20260905102554 | 69 | 131 | 9.0 | 9.0 | 0.00 | 0.00 | 0.00 | 90 | 1011.7 |
| 20260905102050 | 69 | 132 | 8.0 | 9.0 | 0.00 | 0.00 | 0.00 | 90 | 1011.7 |
| 20260905101549 | 69 | 129 | 6.0 | 7.0 | 0.00 | 0.00 | 0.00 | 89 | 1011.6 |
| 20260905101047 | 69 | 107 | 9.0 | 11.0 | 0.00 | 0.00 | 0.00 | 89 | 1011.7 |
| 20260905100544 | 69 | 101 | 9.0 | 13.0 | 0.00 | 0.00 | 0.00 | 89 | 1011.5 |
| 20260905100043 | 69 | 108 | 9.0 | 11.0 | 0.00 | 0.00 | 0.00 | 89 | 1011.4 |
| 20260905095537 | 69 | 98 | 11.0 | 13.0 | 0.00 | 0.00 | 0.00 | 89 | 1011.6 |
| 20260905095033 | 70 | 107 | 9.0 | 11.0 | 0.00 | 0.00 | 0.00 | 89 | 1011.4 |
| 20260905094528 | 70 | 87 | 11.0 | 13.0 | 0.00 | 0.00 | 0.00 | 88 | 1011.6 |
| 20260905094027 | 70 | 117 | 9.0 | 11.0 | 0.00 | 0.00 | 0.00 | 88 | 1011.3 |
| 20260905093516 | 70 | 90 | 14.0 | 17.0 | 0.00 | 0.00 | 0.00 | 88 | 1011.4 |
| 20260905093013 | 70 | 142 | 8.0 | 9.0 | 0.00 | 0.00 | 0.00 | 88 | 1011.5 |
| 20260905092513 | 70 | 144 | 8.0 | 9.0 | 0.00 | 0.00 | 0.00 | 88 | 1011.3 |
| 20260905092009 | 70 | 109 | 10.0 | 13.0 | 0.00 | 0.00 | 0.00 | 88 | 1011.4 |
| 20260905091508 | 70 | 117 | 10.0 | 11.0 | 0.00 | 0.00 | 0.00 | 87 | 1011.4 |
| 20260905091002 | 70 | 89 | 11.0 | 13.0 | 0.00 | 0.00 | 0.00 | 87 | 1011.6 |
| 20260905090457 | 70 | 136 | 10.0 | 13.0 | 0.00 | 0.00 | 0.00 | 87 | 1011.4 |
| 20260905085956 | 70 | 105 | 10.0 | 13.0 | 0.00 | 0.00 | 0.00 | 86 | 1011.5 |
| 20260905085455 | 70 | 112 | 10.0 | 11.0 | 0.00 | 0.00 | 0.00 | 86 | 1011.4 |
| 20260905084951 | 71 | 110 | 10.0 | 11.0 | 0.00 | 0.00 | 0.00 | 85 | 1011.5 |
| 20260905084451 | 71 | 126 | 9.0 | 10.0 | 0.00 | 0.00 | 0.00 | 84 | 1011.7 |
| 20260905083945 | 71 | 97 | 9.0 | 10.0 | 0.00 | 0.00 | 0.00 | 83 | 1011.8 |
| 20260905083442 | 71 | 85 | 11.0 | 14.0 | 0.00 | 0.00 | 0.00 | 82 | 1011.9 |
| 20260905082937 | 71 | 105 | 11.0 | 14.0 | 0.00 | 0.00 | 0.00 | 82 | 1011.9 |
| 20260905082433 | 71 | 100 | 7.0 | 8.0 | 0.00 | 0.00 | 0.00 | 81 | 1011.9 |
| 20260905081927 | 71 | 98 | 8.0 | 8.0 | 0.00 | 0.00 | 0.00 | 81 | 1011.9 |
| 20260905081422 | 71 | 116 | 9.0 | 10.0 | 0.00 | 0.00 | 0.00 | 80 | 1011.9 |
| 20260905080921 | 72 | 103 | 8.0 | 10.0 | 0.00 | 0.00 | 0.00 | 80 | 1011.9 |
| 20260905080416 | 72 | 101 | 11.0 | 13.0 | 0.00 | 0.00 | 0.00 | 80 | 1011.9 |
| 20260905075915 | 72 | 110 | 9.0 | 9.0 | 0.00 | 0.00 | 0.00 | 79 | 1012.0 |
| 20260905075409 | 72 | 145 | 9.0 | 11.0 | 0.00 | 0.00 | 0.00 | 79 | 1011.9 |
| 20260905074908 | 72 | 110 | 7.0 | 10.0 | 0.00 | 0.00 | 0.00 | 79 | 1012.2 |
| 20260905074404 | 72 | 108 | 13.0 | 16.0 | 0.00 | 0.00 | 0.00 | 78 | 1012.1 |
| 20260905073900 | 72 | 130 | 9.0 | 11.0 | 0.00 | 0.00 | 0.00 | 78 | 1012.2 |
| 20260905073355 | 72 | 109 | 8.0 | 9.0 | 0.00 | 0.00 | 0.00 | 78 | 1012.0 |
| 20260905072850 | 72 | 103 | 9.0 | 9.0 | 0.00 | 0.00 | 0.00 | 78 | 1012.2 |
| 20260905072345 | 72 | 122 | 9.0 | 11.0 | 0.00 | 0.00 | 0.00 | 77 | 1012.2 |
| 20260905071841 | 73 | 110 | 9.0 | 10.0 | 0.00 | 0.00 | 0.00 | 77 | 1012.3 |
| 20260905071337 | 73 | 111 | 9.0 | 10.0 | 0.00 | 0.00 | 0.00 | 77 | 1012.2 |
| 20260905070832 | 73 | 103 | 6.0 | 7.0 | 0.00 | 0.00 | 0.00 | 77 | 1012.3 |
| 20260905070328 | 73 | 67 | 9.0 | 10.0 | 0.00 | 0.00 | 0.00 | 77 | 1012.2 |
| 20260905065827 | 73 | 121 | 10.0 | 14.0 | 0.00 | 0.00 | 0.00 | 77 | 1012.4 |
| 20260905065325 | 73 | 141 | 9.0 | 13.0 | 0.00 | 0.00 | 0.00 | 77 | 1012.4 |
| 20260905064821 | 73 | 115 | 12.0 | 14.0 | 0.00 | 0.00 | 0.00 | 76 | 1012.2 |
| 20260905064317 | 73 | 78 | 11.0 | 14.0 | 0.00 | 0.00 | 0.00 | 76 | 1012.2 |
| 20260905063814 | 73 | 142 | 10.0 | 13.0 | 0.00 | 0.00 | 0.00 | 77 | 1012.3 |
| 20260905063311 | 73 | 98 | 7.0 | 8.0 | 0.00 | 0.00 | 0.00 | 77 | 1012.2 |
| 20260905062807 | 73 | 108 | 8.0 | 9.0 | 0.00 | 0.00 | 0.00 | 76 | 1012.4 |
| 20260905062305 | 74 | 94 | 9.0 | 10.0 | 0.00 | 0.00 | 0.00 | 76 | 1012.4 |
| 20260905061755 | 74 | 81 | 7.0 | 8.0 | 0.00 | 0.00 | 0.00 | 76 | 1012.5 |
| 20260905061250 | 74 | 86 | 7.0 | 8.0 | 0.00 | 0.00 | 0.00 | 75 | 1012.3 |
| 20260905060744 | 74 | 59 | 14.0 | 17.0 | 0.00 | 0.00 | 0.00 | 74 | 1012.2 |
| 20260905060242 | 75 | 102 | 11.0 | 13.0 | 0.00 | 0.00 | 0.00 | 73 | 1012.4 |
| 20260905055740 | 75 | 94 | 9.0 | 13.0 | 0.00 | 0.00 | 0.00 | 73 | 1012.4 |
| 20260905055235 | 75 | 76 | 12.0 | 15.0 | 0.00 | 0.00 | 0.00 | 73 | 1012.2 |
| 20260905054730 | 75 | 61 | 11.0 | 14.0 | 0.00 | 0.00 | 0.00 | 73 | 1012.5 |
| 20260905054227 | 75 | 119 | 11.0 | 13.0 | 0.00 | 0.00 | 0.00 | 73 | 1012.2 |
| 20260905053725 | 75 | 130 | 18.0 | 23.0 | 0.00 | 0.00 | 0.00 | 74 | 1012.3 |
| 20260905053221 | 75 | 108 | 11.0 | 13.0 | 0.00 | 0.00 | 0.00 | 74 | 1012.5 |
| 20260905052715 | 75 | 108 | 14.0 | 16.0 | 0.00 | 0.00 | 0.00 | 75 | 1012.4 |
| 20260905052210 | 75 | 91 | 8.0 | 9.0 | 0.00 | 0.00 | 0.00 | 74 | 1012.5 |
| 20260905051710 | 75 | 107 | 7.0 | 9.0 | 0.00 | 0.00 | 0.00 | 74 | 1013.0 |
| 20260905051207 | 75 | 102 | 10.0 | 13.0 | 0.00 | 0.00 | 0.00 | 73 | 1012.6 |
| 20260905050702 | 75 | 132 | 10.0 | 13.0 | 0.00 | 0.00 | 0.00 | 73 | 1012.6 |
| 20260905050159 | 75 | 120 | 11.0 | 14.0 | 0.00 | 0.00 | 0.00 | 73 | 1012.5 |
| 20260905045658 | 75 | 118 | 10.0 | 11.0 | 0.00 | 0.00 | 0.00 | 74 | 1012.5 |
| 20260905045154 | 75 | 101 | 8.0 | 9.0 | 0.00 | 0.00 | 0.00 | 74 | 1012.4 |
| 20260905044649 | 75 | 65 | 9.0 | 13.0 | 0.00 | 0.00 | 0.00 | 74 | 1012.6 |
| 20260905044144 | 75 | 90 | 7.0 | 9.0 | 0.00 | 0.00 | 0.00 | 74 | 1012.4 |
| 20260905043642 | 75 | 73 | 9.0 | 11.0 | 0.00 | 0.00 | 0.00 | 74 | 1012.5 |
| 20260905043138 | 75 | 120 | 9.0 | 14.0 | 0.00 | 0.00 | 0.00 | 73 | 1012.4 |
| 20260905042637 | 75 | 116 | 12.0 | 15.0 | 0.00 | 0.00 | 0.00 | 73 | 1012.6 |
| 20260905042131 | 75 | 139 | 10.0 | 14.0 | 0.00 | 0.00 | 0.00 | 73 | 1012.6 |
| 20260905041627 | 75 | 102 | 7.0 | 9.0 | 0.00 | 0.00 | 0.00 | 73 | 1012.7 |
| 20260905041122 | 75 | 124 | 7.0 | 9.0 | 0.00 | 0.00 | 0.00 | 72 | 1012.6 |
| 20260905040617 | 75 | 106 | 9.0 | 10.0 | 0.00 | 0.00 | 0.00 | 72 | 1012.5 |
| 20260905040116 | 75 | 122 | 7.0 | 8.0 | 0.00 | 0.00 | 0.00 | 72 | 1012.6 |
| 20260905035611 | 75 | 119 | 10.0 | 10.0 | 0.00 | 0.00 | 0.00 | 72 | 1012.7 |
| 20260905035107 | 75 | 95 | 9.0 | 13.0 | 0.00 | 0.00 | 0.00 | 72 | 1012.5 |
| 20260905034603 | 75 | 91 | 11.0 | 13.0 | 0.00 | 0.00 | 0.00 | 72 | 1012.7 |
| 20260905034057 | 76 | 128 | 6.0 | 9.0 | 0.00 | 0.00 | 0.00 | 72 | 1012.7 |
| 20260905033551 | 75 | 162 | 11.0 | 14.0 | 0.00 | 0.00 | 0.00 | 72 | 1012.6 |
| 20260905033047 | 75 | 137 | 12.0 | 16.0 | 0.00 | 0.00 | 0.00 | 72 | 1012.5 |
| 20260905032546 | 75 | 100 | 9.0 | 11.0 | 0.00 | 0.00 | 0.00 | 72 | 1012.9 |
| 20260905032041 | 75 | 125 | 10.0 | 13.0 | 0.00 | 0.00 | 0.00 | 72 | 1012.9 |
| 20260905031537 | 75 | 98 | 10.0 | 15.0 | 0.00 | 0.00 | 0.00 | 72 | 1012.7 |
| 20260905031037 | 76 | 79 | 8.0 | 9.0 | 0.00 | 0.00 | 0.00 | 71 | 1013.1 |
| 20260905030527 | 76 | 108 | 8.0 | 10.0 | 0.00 | 0.00 | 0.00 | 70 | 1012.9 |
| 20260905030027 | 76 | 117 | 6.0 | 7.0 | 0.00 | 0.00 | 0.00 | 70 | 1012.7 |
| 20260905025522 | 76 | 100 | 10.0 | 13.0 | 0.00 | 0.00 | 0.00 | 70 | 1012.9 |
| 20260905025019 | 77 | 80 | 9.0 | 11.0 | 0.00 | 0.00 | 0.00 | 69 | 1013.0 |
| 20260905024513 | 77 | 68 | 12.0 | 13.0 | 0.00 | 0.00 | 0.00 | 68 | 1013.0 |